Pardubice, Czech Republic

6:03 AM CEST on April 30, 2017 (GMT +0200)
Pardubice

Weather History for LKPD - January, 2013

Change the Weather History Date:

Sunday, January 20, 2013

  Actual Average Record
Temperature  
Mean Temperature 26 °F -  
Max Temperature 28 °F - - ()
Min Temperature 23 °F - - ()
Degree Days  
Heating Degree Days 40    
Moisture  
Dew Point 21 °F    
Average Humidity 83    
Maximum Humidity 93    
Minimum Humidity 80    
Precipitation  
Precipitation 0.00 in - - ()
Sea Level Pressure  
Sea Level Pressure 29.50 in    
Wind  
Wind Speed 4 mph ()    
Max Wind Speed 7 mph    
Max Gust Speed -    
Visibility 4.4 miles    
Events      
T = Trace of Precipitation, MM = Missing Value Source: Averaged Metar Reports

Daily Weather History Graph

Daily Weather History Graph

Search for Another Location

Airport or City:

Trip Planner

Search our weather history database for the weather conditions in past years. The results will help you decide how hot, cold, wet, or windy it might be!

Date:

Astronomy

Jan. 20, 2013 Rise Set
Actual Time 7:45 AM CET 4:31 PM CET
Civil Twilight 7:08 AM CET 5:07 PM CET
Nautical Twilight 6:29 AM CET 5:47 PM CET
Astronomical Twilight 5:50 AM CET 6:26 PM CET
Moon 11:25 AM CET (1/20) 1:56 AM CET (1/20)
Length of Visible Light 9h 58m
Length of Day
8h 46m
Waxing Gibbous, 64% of the Moon is Illuminated
Jan 20
Waxing Gibbous
Jan 27
Full
Feb 3
Last Quarter
Feb 10
New
Feb 17
First Quarter

Hourly Weather History & Observations

Time (CET) Temp. Windchill Dew Point Humidity Pressure Visibility Wind Dir Wind Speed Gust Speed Precip Events Conditions
12:00 AM 24.8 °F 20.5 °F 19.4 °F 80% 29.56 in 4.3 mi East 3.5 mph - N/A   Overcast
1:00 AM 23.0 °F 14.7 °F 17.6 °F 80% 29.53 in 4.3 mi East 6.9 mph - N/A   Overcast
2:00 AM 23.0 °F 15.8 °F 17.6 °F 80% 29.53 in 4.3 mi East 5.8 mph - N/A   Overcast
3:00 AM 24.8 °F 17.9 °F 21.2 °F 86% 29.53 in 4.3 mi East 5.8 mph - N/A   Overcast
4:00 AM 24.8 °F 16.9 °F 21.2 °F 86% 29.53 in 4.3 mi East 6.9 mph - N/A   Overcast
5:00 AM 24.8 °F 17.9 °F 21.2 °F 86% 29.53 in 4.3 mi East 5.8 mph - N/A   Overcast
6:00 AM 23.0 °F 15.8 °F 19.4 °F 86% 29.53 in 6.2 mi East 5.8 mph - N/A   Overcast
7:00 AM 24.8 °F 17.9 °F 19.4 °F 80% 29.53 in 6.2 mi ESE 5.8 mph - N/A   Overcast
8:00 AM 23.0 °F 17.0 °F 19.4 °F 86% 29.53 in 5.0 mi ESE 4.6 mph - N/A   Overcast
9:00 AM 24.8 °F 20.5 °F 19.4 °F 80% 29.53 in 4.3 mi ENE 3.5 mph - N/A   Overcast
10:00 AM 24.8 °F 19.1 °F 19.4 °F 80% 29.50 in 4.3 mi East 4.6 mph - N/A   Overcast
11:00 AM 26.6 °F 21.2 °F 21.2 °F 80% 29.53 in 4.3 mi East 4.6 mph - N/A   Overcast
12:00 PM 26.6 °F 22.6 °F 21.2 °F 80% 29.50 in 4.3 mi NE 3.5 mph - N/A   Overcast
1:00 PM 26.6 °F - 21.2 °F 80% 29.50 in 4.3 mi Variable 2.3 mph - N/A   Overcast
2:00 PM 28.4 °F 23.3 °F 23.0 °F 80% 29.47 in 4.3 mi ENE 4.6 mph - N/A   Overcast
3:00 PM 28.4 °F 23.3 °F 23.0 °F 80% 29.47 in 4.3 mi ENE 4.6 mph - N/A   Overcast
4:00 PM 28.4 °F - 23.0 °F 80% 29.47 in 4.3 mi East 2.3 mph - N/A   Overcast
5:00 PM 28.4 °F - 24.8 °F 86% 29.47 in 3.7 mi Variable 1.2 mph - N/A   Overcast
6:00 PM 28.4 °F 23.3 °F 24.8 °F 86% 29.47 in 4.3 mi ENE 4.6 mph - N/A   Overcast
8:00 PM 28.4 °F - 24.8 °F 86% 29.47 in 4.3 mi Variable 2.3 mph - N/A   Overcast
9:00 PM 26.6 °F - 24.8 °F 93% 29.47 in 3.7 mi Variable 2.3 mph - N/A   Overcast
10:00 PM 26.6 °F 21.2 °F 23.0 °F 86% 29.47 in 4.3 mi NE 4.6 mph - N/A   Overcast
11:00 PM 26.6 °F - 23.0 °F 86% 29.47 in 4.3 mi Variable 2.3 mph - N/A   Overcast